Location: Riverside Cemetery
(38.3047°N, 99.7773°W)
Time: 16:11:56
(UTC+00:00)

ATLAS 3B R/B - Pass Details

Date: 19 September 2020
Orbit: 1016 x 1179 km, 63.8° (Epoch: 04 October)

Event Time Altitude Azimuth Distance (km) Brightness Sun altitude
Rises 02:42:36 0° 335° (NNW) 3,823 6.3 -24.0°
Reaches altitude 10° 02:46:21 10° 355° (N) 2,895 5.3 -24.6°
Maximum altitude 02:50:38 17° 35° (NE) 2,441 4.5 -25.4°
Enters shadow 02:51:46 16° 46° (NE) 2,486 4.4 -25.6°
